Location: *
(44.1392°N, 4.8079°E)
Time: 22:07:57
(UTC+00:00)

Lacrosse 4 Rocket - Pass Details

Date: 21 June 2021
Orbit: 543 x 614 km, 68.0° (Epoch: 02 August)

Event Time Altitude Azimuth Distance (km) Brightness Sun altitude
Rises 02:53:08 0° 309° (NW) 2,727 4.8 -9.6°
Reaches altitude 10° 02:56:37 10° 278° (W) 1,817 3.6 -9.2°
Maximum altitude 02:58:08 12° 256° (WSW) 1,693 3.3 -9.0°
Enters shadow 02:59:12 11° 240° (WSW) 1,749 3.3 -8.8°
